Temp
20 20 20 19 20 19 19 19 19 19 20 20 20 20 20 20 19 19 19 19 19 19 18 18 18 16 16 16 15 15 15 16 15 15 14 14 14 13 13 13 13 13 13
20 20 20 20 20 20 20 20 20 20 20 20 20 20 20 20 20 19 19 19 19 19 19 18 18 17 16 16 16 15 14 15 15 15 14 14 13 13 13 12 12 12 12
20 20 20 20 20 20 20 20 19 20 19 19 19 19 19 20 20 20 20 19 19 19 18 18 18 18 17 16 16 16 15 14 15 15 14 14 13 12 12 12 12 12 12
20 19 19 19 20 20 20 19 19 19 19 19 19 20 20 20 20 20 19 19 19 19 19 18 18 17 17 16 16 15 15 15 15 14 14 14 13 13 12 12 12 12 12
20 19 19 19 19 19 19 19 19 19 19 19 20 20 20 20 19 19 19 19 19 19 18 18 17 16 16 16 16 15 15 15 15 14 14 14 13 13 12 12 12 12 12
20 20 20 19 19 19 19 19 19 19 19 19 19 19 19 19 19 19 19 18 18 18 18 18 17 16 15 15 15 15 14 14 14 14 14 14 14 14 13 13 12 12 12
20 20 19 19 19 19 19 19 19 18 19 19 18 18 18 19 18 19 19 19 18 18 17 17 17 16 15 15 15 14 14 14 14 14 14 14 14 14 13 13 13 13 12
20 19 19 19 19 19 19 19 18 18 18 18 18 18 16 17 18 18 19 19 18 17 18 17 16 15 15 14 14 13 13 13 13 12 12 12 12 13 14 13 13 13 13
20 19 18 18 18 18 18 18 18 17 16 17 17 17 15 14 14 18 18 17 17 17 17 16 15 15 15 14 13 13 13 12 12 11 11 12 12 12 13 13 13 13 13
18 18 17 17 16 16 16 15 15 15 15 15 15 15 15 15 14 14 16 16 16 15 15 15 14 13 13 13 13 12 12 11 10 10 10 11 11 12 12 12 12 13 13
17 16 16 16 15 15 14 14 14 14 14 13 13 13 14 15 15 13 13 14 15 14 14 14 13 12 12 11 12 11 11 11 9 9 10 10 10 10 10 11 11 11 12
15 15 14 14 14 13 13 13 13 13 13 12 12 12 12 13 13 13 12 12 13 12 12 11 11 10 10 10 10 10 10 10 10 8 9 10 9 9 9 9 10 11 11
13 13 13 13 13 12 12 12 12 12 12 11 11 12 12 12 12 13 13 12 13 12 10 9 9 8 8 9 9 9 9 8 7 8 9 8 7 7 8 9 10 10 11
13 12 12 12 12 11 11 11 11 11 11 11 11 11 11 11 11 12 12 12 11 11 10 8 7 7 6 8 7 7 7 5 6 7 7 6 6 7 8 9 9 9 10
12 12 12 11 10 10 10 10 10 10 10 10 10 10 9 10 10 10 10 11 11 10 10 7 6 6 6 6 5 6 6 4 5 5 6 6 5 6 6 8 8 10 10
11 11 10 9 9 9 9 9 9 9 9 9 9 9 8 8 8 9 9 9 9 9 9 6 5 5 5 5 4 3 4 4 4 4 4 4 5 5 5 6 7 8 9
10 9 9 8 8 8 8 8 8 8 8 8 8 7 7 7 7 8 7 7 8 8 7 5 5 4 4 4 3 2 2 3 3 3 3 4 4 5 5 5 5 6 7
8 8 7 7 7 7 6 6 6 6 7 7 6 6 6 6 6 6 7 6 6 6 6 5 4 4 3 2 2 2 2 2 2 2 2 3 3 3 4 5 4 6 6
7 6 6 6 6 5 5 5 5 6 6 6 5 6 5 5 5 4 4 4 4 4 5 5 3 3 3 2 2 2 2 2 2 2 2 2 2 2 3 3 3 4 5
6 5 5 5 4 4 4 4 4 4 4 4 4 4 3 3 3 3 3 3 4 4 4 4 4 3 2 2 2 2 2 2 2 1 1 1 1 2 1 2 2 2 3
5 4 4 4 3 3 3 3 3 4 3 3 2 2 2 2 2 2 3 3 3 3 3 4 3 2 2 1 1 0 1 0 -0 0 1 1 1 1 1 1 1 1 2
4 3 3 3 3 3 3 3 3 3 2 2 2 2 2 2 2 2 1 2 2 2 2 2 2 1 0 0 -0 -0 -1 -1 -1 -0 -0 -0 -0 0 -0 -0 -0 -0 0
3 3 3 2 2 2 2 2 2 2 2 1 1 1 1 0 0 0 -0 -0 -0 -0 0 1 1 0 -1 -1 -1 -2 -2 -2 -2 -1 -1 -1 -1 -1 -1 -1 -1 -1 -1
3 2 2 2 2 1 0 1 2 2 1 1 1 1 0 0 0 0 0 -0 -0 -0 -0 -0 -0 -1 -1 -2 -2 -2 -2 -2 -2 -2 -2 -2 -2 -1 -1 -2 -2 -2 -2
2 2 2 1 1 1 -0 1 1 1 1 1 0 0 0 0 -0 -0 -0 -1 -1 -1 -1 -1 -1 -1 -2 -2 -2 -2 -2 -2 -2 -3 -3 -3 -3 -3 -2 -2 -2 -3 -2
2 1 1 1 1 1 0 -0 1 0 0 0 -0 -0 -0 -0 -1 -1 -1 -1 -1 -1 -2 -2 -2 -2 -2 -3 -3 -3 -3 -3 -3 -4 -4 -4 -4 -4 -3 -3 -3 -3 -3
Height
847 848 849 850 851 851 852 852 852 853 853 854 854 854 855 854 854 854 854 853 853 853 852 852 851 852 852 851 850 850 849 849 849 848 847 846 846 846 845 845 846 847 847
846 847 848 849 850 851 851 852 852 852 852 853 853 853 853 853 853 852 852 851 851 850 850 850 849 849 849 849 849 848 847 847 847 847 846 846 846 845 846 845 845 846 846
845 846 847 847 849 849 850 851 851 851 851 852 851 851 851 851 850 849 849 849 849 848 847 847 847 846 846 846 845 845 844 845 844 844 844 844 844 844 843 845 845 845 846
843 844 845 846 847 848 849 849 850 850 850 850 849 849 849 848 847 847 847 846 846 845 845 844 844 844 844 843 843 842 841 842 842 842 842 842 843 843 843 843 846 844 846
841 842 844 844 845 846 847 848 848 848 848 848 847 846 846 845 845 844 843 842 842 842 841 841 842 842 842 842 841 840 839 838 839 839 839 839 840 840 841 840 842 843 844
838 840 841 843 844 844 845 846 846 846 845 845 844 843 843 843 842 841 839 839 839 839 838 839 841 840 839 839 839 838 837 836 835 835 835 836 836 836 837 838 839 840 841
837 839 840 841 841 842 842 843 842 843 842 842 841 840 839 839 838 836 834 834 836 835 836 837 838 838 838 838 837 837 837 836 835 833 832 831 831 832 831 833 835 836 838
834 836 838 838 839 839 839 839 839 839 839 840 840 838 836 835 834 832 830 829 832 833 833 834 835 836 837 837 837 836 836 835 833 832 831 830 829 829 829 829 830 832 834
831 833 834 835 836 836 836 836 836 836 835 836 837 838 836 835 834 830 831 831 831 831 831 831 831 832 833 834 835 834 834 832 831 831 830 829 827 826 825 825 825 827 829
829 831 832 832 832 832 831 832 832 832 833 832 833 833 834 834 834 832 830 830 830 830 830 830 830 830 832 831 832 832 831 831 829 830 830 829 826 825 824 823 822 822 822
828 828 829 829 830 830 829 829 829 829 830 830 831 831 830 830 831 831 831 829 829 829 828 828 829 829 829 829 828 829 830 829 827 826 826 824 823 822 822 820 819 818 819
825 826 827 827 827 827 827 827 827 827 827 827 828 828 829 829 827 828 828 827 826 827 827 829 828 829 828 828 827 828 829 829 827 825 824 825 821 819 818 817 816 814 814
821 823 824 825 825 825 825 824 824 824 824 824 824 824 825 825 825 825 825 824 823 823 825 827 826 828 828 826 826 828 827 827 828 827 823 823 820 818 817 815 812 809 808
818 819 821 822 822 822 822 821 821 821 821 821 821 821 821 821 821 821 821 821 822 821 821 823 825 826 827 825 825 826 826 826 827 826 824 823 821 818 816 815 811 806 802
817 817 816 818 820 820 819 818 818 818 818 818 818 818 817 818 817 818 818 819 819 820 819 823 825 825 826 826 825 825 824 825 826 826 824 822 822 818 817 815 810 806 801
816 815 813 816 817 818 817 816 816 816 815 815 815 816 816 815 815 816 816 817 815 817 818 822 823 825 825 825 825 824 822 823 826 826 824 824 822 819 817 814 812 809 805
811 812 813 814 815 814 815 814 813 813 814 813 813 813 814 814 813 813 814 815 815 816 817 820 821 823 824 823 823 823 824 821 823 825 824 824 822 819 817 815 813 812 809
808 812 813 813 812 812 813 813 812 811 811 812 812 812 813 811 811 812 812 813 814 813 816 818 821 822 823 824 822 823 823 824 823 824 823 823 821 818 816 815 814 814 813
808 810 811 811 810 811 812 812 810 810 809 811 811 811 812 810 811 810 811 812 813 812 814 816 819 822 823 823 822 823 822 824 825 823 823 822 820 818 817 816 815 815 814
808 807 808 808 809 808 809 810 811 809 809 809 810 811 811 810 811 811 811 811 812 812 813 817 817 821 822 823 822 823 822 822 823 822 822 821 820 818 818 817 817 816 816
805 807 808 806 806 807 808 810 810 810 808 810 809 809 811 810 810 811 812 809 811 814 813 815 815 818 819 821 822 821 821 821 822 821 821 820 819 818 818 818 818 817 816
804 805 805 805 804 803 806 809 808 808 807 808 808 809 811 811 810 810 810 812 812 814 812 814 813 817 817 818 821 821 821 821 821 822 821 818 818 818 818 817 818 817 815
802 802 802 803 803 803 805 807 808 807 807 809 809 811 812 812 812 811 811 813 813 814 812 812 813 815 817 816 820 820 821 821 821 821 821 818 817 817 817 817 817 816 814
798 799 800 801 802 803 803 804 806 806 808 808 809 811 812 811 813 812 813 813 814 815 813 812 813 815 816 815 817 819 820 821 821 821 821 818 817 816 815 815 816 815 815
796 797 798 799 801 802 803 804 805 806 808 809 809 810 812 813 812 812 813 813 815 814 813 812 813 815 814 814 815 817 819 820 820 820 820 819 817 815 815 814 814 814 814
793 795 797 798 800 801 802 804 804 806 807 808 810 810 811 812 812 813 812 812 813 813 812 813 813 814 814 813 815 817 817 818 819 819 819 819 817 816 814 813 813 813 812
Wind_Speed
9 9 8 8 4 4 5 6 5 4 5 6 7 7 8 8 9 9 10 11 11 12 11 10 10 8 9 11 10 8 7 8 6 5 3 2 2 2 3 4 4 4 4
10 10 10 8 8 8 8 7 6 7 6 6 8 8 9 10 11 11 13 14 14 13 12 11 11 11 11 11 13 13 12 10 9 6 5 4 3 3 2 2 3 3 3
12 11 11 9 9 9 7 8 8 8 8 10 10 10 10 11 13 13 12 12 15 16 15 13 13 11 11 12 14 14 14 14 12 10 8 6 4 5 4 4 4 4 5
13 11 10 9 8 7 8 8 9 9 10 10 11 12 13 14 11 12 12 14 15 16 16 16 14 10 11 12 13 15 17 15 15 14 12 10 8 7 6 6 7 5 5
11 11 10 8 8 8 9 10 10 10 11 12 13 12 13 15 14 15 19 16 14 15 15 14 9 8 7 8 10 12 13 14 14 14 17 14 12 10 9 9 9 8 8
12 12 10 9 8 9 10 11 12 13 14 12 14 17 18 19 19 19 18 18 17 12 12 4 2 4 3 6 6 8 10 10 10 10 12 15 17 15 13 13 12 12 12
13 13 11 10 11 11 11 11 12 12 15 15 13 17 16 16 18 22 22 21 16 8 4 3 5 4 3 6 6 6 8 11 13 12 11 11 13 18 19 18 16 15 15
13 12 10 12 13 14 14 14 15 15 17 17 13 14 3 7 14 12 11 10 9 7 6 5 2 3 5 7 8 10 11 12 12 11 11 10 10 11 12 20 21 19 19
15 15 15 14 15 15 17 18 18 16 16 19 18 9 3 2 3 3 5 1 2 5 5 3 5 5 4 2 5 9 12 12 10 10 11 10 9 9 10 11 13 21 23
12 12 12 14 15 15 14 13 11 11 11 12 13 10 11 8 2 3 3 2 1 1 4 7 10 7 3 0 6 9 10 9 9 11 11 11 10 10 10 9 10 12 14
8 7 7 7 8 8 9 9 9 9 9 10 10 10 10 13 15 8 3 6 2 2 5 10 10 6 2 2 6 7 8 8 10 11 11 9 8 8 9 10 12 13 10
7 6 5 6 6 7 7 7 8 8 8 9 10 12 11 9 5 6 3 7 5 4 7 5 4 1 1 4 5 6 7 10 12 13 9 7 6 9 10 10 13 13 14
9 7 5 6 7 7 8 9 9 9 9 9 9 10 12 14 17 20 12 5 6 7 5 4 2 1 2 4 5 5 7 10 12 10 11 9 7 11 11 11 14 15 15
11 8 7 7 7 8 8 8 8 8 8 9 10 13 14 12 13 13 11 9 3 8 4 5 3 1 2 3 3 4 5 9 8 8 8 8 11 12 9 10 15 16 10
10 10 7 7 7 7 7 7 7 7 7 7 8 8 8 10 8 9 8 8 5 3 3 3 4 2 2 3 4 4 5 6 5 5 4 7 9 11 9 10 14 16 11
9 7 6 7 7 7 7 7 7 7 7 8 6 9 9 8 6 5 4 5 5 3 2 3 3 2 2 2 4 5 4 2 2 2 4 7 7 8 10 10 13 14 18
7 6 6 6 7 7 7 6 6 6 7 8 7 6 8 7 7 6 5 5 5 5 4 3 5 3 2 2 2 2 3 3 5 3 3 4 4 6 7 9 10 12 12
4 6 6 6 6 6 6 5 5 5 5 7 7 7 6 6 7 7 8 6 5 5 6 5 5 2 1 2 1 3 4 4 6 7 6 5 3 5 4 6 7 6 7
7 6 5 4 5 5 5 4 4 6 6 5 7 6 6 5 4 4 5 5 4 4 5 4 4 3 1 1 4 4 5 4 3 5 4 6 6 5 5 4 4 4 3
7 6 6 5 5 4 4 4 5 6 6 5 5 4 4 3 3 5 5 5 4 5 6 7 4 3 2 2 2 3 2 2 2 2 3 3 5 5 6 5 5 3 2
6 7 6 5 3 4 4 6 8 8 7 7 6 6 6 5 4 4 3 4 4 5 6 8 7 5 5 2 1 2 3 3 0 4 6 5 3 3 2 5 7 6 4
7 6 6 5 4 5 5 7 10 10 7 8 10 8 6 5 6 5 6 5 3 5 7 6 5 4 5 4 1 2 2 2 1 4 9 4 4 4 3 5 7 8 5
7 6 6 5 5 5 6 8 10 9 9 9 8 6 6 5 4 6 6 5 7 6 5 5 6 5 4 3 1 1 2 2 2 6 7 1 3 2 4 4 6 9 6
8 8 7 7 7 5 8 9 9 9 10 10 8 6 6 5 3 3 3 4 4 3 3 4 4 4 3 3 1 0 2 3 3 1 4 2 5 4 6 1 3 7 6
9 9 10 10 8 8 8 8 9 9 9 9 8 7 6 5 4 3 4 4 4 4 5 4 3 2 1 2 3 4 4 3 1 1 4 4 4 10 3 4 2 2 3
10 11 11 10 9 9 9 9 8 9 9 9 8 7 7 6 5 4 4 5 4 5 2 3 3 2 1 3 2 2 4 3 2 1 2 6 4 8 3 2 2 6 2
Wind_Direction
203 207 211 207 232 221 243 232 238 265 261 273 274 271 278 283 283 281 275 278 289 296 301 304 291 272 264 275 280 280 298 323 322 322 311 280 225 172 128 118 113 117 100
196 197 203 210 218 227 236 228 232 251 259 265 267 270 276 279 280 279 276 278 280 292 293 302 307 293 273 267 271 265 263 273 286 302 315 309 259 228 197 183 179 178 140
201 206 208 217 225 230 230 229 239 254 260 266 273 276 278 277 274 275 274 281 288 284 281 284 303 305 299 285 278 271 269 245 264 271 270 273 257 244 230 228 217 195 168
210 209 212 216 217 227 231 241 249 258 264 270 275 276 273 281 287 270 278 285 283 289 290 289 291 288 296 292 294 290 282 268 256 257 261 259 254 243 234 222 225 214 207
204 207 211 213 219 234 236 252 258 263 270 275 283 287 283 286 291 291 291 285 280 286 294 287 258 282 309 314 305 311 310 296 279 269 251 250 250 248 238 225 220 219 216
212 214 206 215 230 240 245 250 260 265 276 283 285 281 283 287 288 288 285 278 276 286 285 264 289 337 331 311 308 298 311 317 303 299 285 266 246 246 242 234 223 223 218
201 207 219 220 232 248 256 262 268 281 281 294 313 297 290 287 284 287 285 275 266 245 218 254 295 306 304 309 319 317 310 312 311 311 295 294 277 253 234 232 226 225 225
184 195 212 233 247 257 261 267 272 280 279 283 282 289 286 299 291 285 290 280 226 188 230 260 300 275 312 323 320 318 317 315 318 335 338 328 311 304 282 253 234 228 222
229 233 230 240 246 254 262 266 269 273 276 277 278 269 288 250 319 325 8 46 195 206 213 191 195 223 224 287 318 320 316 319 327 340 339 334 331 317 302 298 269 247 245
230 234 238 240 248 249 255 260 260 261 266 273 286 267 258 274 271 300 298 335 53 133 166 166 166 165 184 351 338 326 323 327 342 351 343 339 338 319 318 313 301 278 264
217 229 239 245 246 249 253 259 260 261 264 264 266 279 280 268 268 245 260 270 230 132 130 159 164 165 173 355 327 325 326 334 342 343 337 329 334 327 325 317 304 294 285
206 226 239 244 246 252 258 261 263 262 261 259 258 268 268 264 274 254 251 251 240 166 154 163 148 162 2 9 355 330 331 346 349 350 346 346 358 358 344 329 321 300 267
201 217 235 255 255 260 266 271 270 268 262 256 259 268 267 268 268 270 261 260 237 199 163 149 109 64 27 9 342 336 345 4 19 22 41 36 3 5 354 352 344 312 273
201 218 245 260 262 267 270 271 271 268 259 242 259 270 268 266 264 260 262 230 237 217 171 157 141 89 16 359 338 327 7 18 38 36 31 16 18 25 27 358 6 356 285
218 227 238 250 258 263 268 269 266 252 243 241 249 256 257 253 255 255 241 245 214 214 190 126 174 74 39 10 3 347 30 27 52 31 359 12 18 25 25 24 18 17 10
216 227 233 242 255 262 264 265 262 254 247 239 241 259 245 238 232 234 230 229 212 189 147 167 131 136 63 319 1 0 17 40 330 6 31 30 22 22 22 32 29 37 43
206 228 236 244 249 258 266 263 256 257 251 229 250 244 238 230 225 249 243 258 237 224 184 136 156 155 216 212 303 39 14 36 14 15 15 12 8 18 5 21 37 41 46
214 237 242 238 245 263 266 255 252 249 232 229 223 225 231 225 235 237 256 241 228 184 193 157 167 143 357 356 153 24 75 50 40 37 26 13 355 38 15 348 26 47 54
206 216 226 240 252 262 259 245 218 199 188 189 197 213 213 209 186 166 161 159 157 147 152 184 151 155 164 350 118 98 103 94 29 7 13 40 34 31 27 16 4 23 39
207 220 238 253 263 259 247 215 199 195 183 175 179 178 175 169 155 143 147 141 148 155 158 159 145 168 157 158 100 79 139 8 320 359 16 32 31 26 33 28 19 6 16
215 225 228 224 250 226 221 221 208 215 201 174 162 154 137 130 131 154 166 134 155 168 158 170 158 161 143 126 73 8 342 336 33 24 11 348 358 10 20 346 339 332 321
211 212 210 219 215 216 230 204 195 195 183 175 159 151 148 141 124 126 98 98 137 178 162 158 139 146 131 134 342 358 9 12 344 335 358 76 52 57 38 358 345 339 328
206 201 210 213 204 216 215 187 197 196 184 174 166 155 137 122 125 120 101 105 91 89 115 145 142 146 150 128 153 54 348 353 326 327 338 182 30 20 343 345 355 359 7
207 201 200 198 198 217 178 190 188 186 177 164 157 163 171 144 157 164 149 136 134 109 101 103 121 127 135 134 184 318 305 326 303 104 351 312 328 338 336 325 19 18 29
209 204 201 199 208 194 173 170 169 164 165 165 167 166 182 175 165 171 153 144 166 122 102 99 112 133 185 211 253 244 224 289 213 237 352 344 338 338 4 110 80 32 360
219 208 202 212 214 197 185 186 185 181 180 180 181 176 196 189 184 194 195 179 172 169 170 170 176 187 127 121 175 207 200 213 196 199 353 348 352 358 333 215 306 333 336